DateTimeUTC,F1_A11,F1_S11,BsB_S11,BsG_S11,BsR_S11,BbsB_S11,BbsG_S11,BbsR_S11,BaB_A11,BaG_A11,BaR_A11,Tu_S11,T_S11,Uu_S11,U_S11,P_S11,T1_A11
2021-10-24T08:00:00Z,00000200,21000000,,,,,,,-000.43,-000.12,0000.15,17.8,24.8,,00.0,0641.8,31.0
2021-10-24T08:01:00Z,00000200,21000000,,,,,,,-000.14,0000.17,0000.02,17.8,24.8,,00.0,0641.8,31.0
2021-10-24T08:02:00Z,00000200,21000000,,,,,,,0000.34,-000.24,0000.19,17.8,24.8,,00.0,0641.8,31.1
2021-10-24T08:03:00Z,00000200,61000000,,,,,,,0000.21,0000.26,-000.06,17.9,24.8,,00.0,0641.8,31.0
2021-10-24T08:04:00Z,00000200,41000000,0000.63,-000.23,0000.30,0000.10,0000.18,0000.21,-000.21,-000.22,0000.19,18.2,24.7,,00.0,0642.6,31.1
2021-10-24T08:05:00Z,00000200,01000000,0001.16,-000.01,0000.00,-000.47,-000.11,0000.03,0000.54,0000.51,-000.22,18.3,24.7,,00.0,0642.7,31.1
2021-10-24T08:06:00Z,00000200,01000000,0000.37,0000.07,-000.33,0000.25,0000.13,-000.05,-000.38,-000.36,-000.09,18.4,24.7,,00.0,0642.7,31.1
2021-10-24T08:07:00Z,00000200,01000000,0000.45,-000.02,0000.18,-000.15,-000.02,0000.07,0000.35,0000.45,0000.68,18.4,24.7,,00.0,0642.7,31.1
2021-10-24T08:08:00Z,00000200,01000000,0000.70,-000.27,-000.20,0000.57,-000.05,0000.16,-000.18,-000.03,-000.94,18.4,24.7,,00.0,0642.7,31.1
2021-10-24T08:09:00Z,00000200,01000000,0000.54,0000.12,-000.02,0000.31,-000.03,0000.12,-000.12,-000.44,0000.44,18.3,24.7,,00.0,0642.7,31.0
2021-10-24T08:10:00Z,00000200,01000000,0001.01,0000.07,-000.03,0000.32,0000.12,0000.19,0000.33,0000.44,0000.23,18.2,24.7,,00.0,0642.7,31.0
2021-10-24T08:11:00Z,00000200,01000000,0001.01,-000.32,0000.14,-000.41,0000.26,0000.11,-000.25,-000.46,-000.35,18.2,24.6,,00.0,0642.6,31.0
2021-10-24T08:12:00Z,00000200,01000000,0000.20,-000.30,0000.00,0000.15,-000.11,-000.07,-000.00,-000.14,0000.24,18.1,24.7,,00.0,0642.7,31.0
2021-10-24T08:13:00Z,00000200,01000000,0000.46,0000.02,-000.15,-000.13,-000.06,-000.15,0000.15,-000.00,0000.15,18.2,24.7,,00.0,0642.7,31.0
2021-10-24T08:14:00Z,00000200,01000000,-000.05,-000.26,-000.16,0000.21,-000.06,-000.14,-000.10,0000.33,-000.08,18.2,24.7,,00.0,0642.7,31.0
2021-10-24T08:15:00Z,00000200,01000000,0000.51,-000.09,0000.26,0000.27,0000.32,0000.43,0000.20,0000.13,-000.14,18.2,24.7,,00.0,0642.6,31.0
2021-10-24T08:16:00Z,00000200,01000000,-000.08,-000.19,0000.07,0000.04,0000.10,0000.20,0000.10,0000.12,0000.26,18.3,24.7,,00.0,0642.6,31.0
2021-10-24T08:17:00Z,00000200,01000000,0000.06,-000.14,0000.27,-000.07,-000.08,0000.16,-000.22,0000.10,0000.24,18.4,24.7,,00.0,0642.7,31.1
2021-10-24T08:18:00Z,00000200,01000000,0000.14,-000.24,0000.11,0000.06,0000.19,-000.28,0000.57,0000.35,0000.03,18.4,24.7,,00.0,0642.5,31.1
2021-10-24T08:19:00Z,00000200,01000000,0000.79,-000.19,-000.06,0000.42,0000.12,0000.15,-000.30,-000.15,-000.56,18.4,24.7,,00.0,0642.5,31.1
2021-10-24T08:20:00Z,00000200,01000000,0000.41,0000.09,0000.37,0000.80,-000.17,-000.08,0000.14,0000.34,0000.48,18.5,24.8,,00.0,0642.5,31.1
2021-10-24T08:21:00Z,00000200,01000000,0000.75,-000.28,0000.11,0000.10,0000.18,0000.20,0000.01,-000.51,-000.32,18.4,24.8,,00.0,0642.5,31.1
2021-10-24T08:22:00Z,00000200,01000000,0000.96,-000.19,-000.03,0000.20,0000.04,0000.27,-000.29,0000.18,0000.07,18.3,24.7,,00.0,0642.5,31.1
2021-10-24T08:23:00Z,00000200,01000000,0000.48,0000.05,-000.04,-000.64,0000.00,0000.25,0000.38,-000.15,0000.11,18.2,24.7,,00.0,0642.4,31.0
2021-10-24T08:24:00Z,00000200,01000000,0000.94,0000.05,0000.06,0000.62,0000.26,-000.02,-000.23,-000.03,-000.53,18.1,24.6,,00.0,0642.4,31.0
2021-10-24T08:25:00Z,00000200,01000000,-000.15,0000.27,0000.29,0000.19,0000.55,0000.60,0000.23,-000.14,0000.52,18.0,24.6,,00.0,0642.2,31.0
2021-10-24T08:26:00Z,00000200,01000000,0000.84,-000.06,0000.40,-000.04,0000.22,0000.32,0000.04,0000.22,-000.27,18.0,24.6,,00.0,0642.4,31.0
2021-10-24T08:27:00Z,00000200,01000000,0000.39,0000.13,0000.25,0000.72,0000.11,-000.04,-000.13,0000.44,0000.19,18.0,24.5,,00.0,0642.3,31.0
2021-10-24T08:28:00Z,00000200,01000000,-000.12,-000.10,0000.05,-000.54,0000.10,0000.55,0000.27,-000.32,0000.22,18.0,24.5,,00.0,0642.5,31.0
2021-10-24T08:29:00Z,00000200,01000000,0000.13,-000.17,-000.14,-000.24,-000.01,0000.23,0000.31,0000.26,0000.23,18.0,24.5,,00.0,0642.5,31.0
2021-10-24T08:30:00Z,00000200,01000000,0000.29,0000.30,0000.21,0000.04,0000.24,0000.27,0000.12,0000.30,0000.02,18.0,24.6,,00.0,0642.5,31.0
2021-10-24T08:31:00Z,00000200,01000000,0001.02,0000.16,0000.06,0000.39,0000.05,0000.10,-000.15,-000.13,0000.05,18.1,24.6,,00.0,0642.5,31.0
2021-10-24T08:32:00Z,00000200,01000000,0000.05,-000.05,-000.17,0000.23,0000.36,0000.16,0000.06,-000.11,0000.05,18.1,24.6,,00.0,0642.5,31.0
2021-10-24T08:33:00Z,00000200,01000000,-000.01,-000.47,0000.10,0000.04,0000.16,-000.11,-000.33,0000.54,0000.14,18.2,24.6,,00.0,0642.4,31.0
2021-10-24T08:34:00Z,00000200,01000000,0000.39,-000.12,0000.12,0000.26,0000.00,0000.32,0000.55,-000.18,-000.22,18.2,24.6,,00.0,0642.5,31.1
2021-10-24T08:35:00Z,00000200,01000000,0000.79,-000.00,0000.41,0000.16,0000.16,0000.19,-000.02,0000.39,0000.14,18.3,24.6,,00.0,0642.5,31.1
2021-10-24T08:36:00Z,00000200,01000000,0000.07,-000.13,0000.21,-000.26,0000.05,0000.40,-000.19,-000.35,0000.06,18.3,24.6,,00.0,0642.4,31.1
2021-10-24T08:37:00Z,00000200,01000000,0000.43,0000.07,-000.07,0000.73,-000.25,0000.10,0000.23,0000.01,-000.04,18.4,24.7,,00.0,0642.5,31.1
2021-10-24T08:38:00Z,00000200,01000000,-000.07,-000.40,-000.13,0000.19,0000.29,0000.03,0000.14,-000.10,-000.02,18.4,24.7,,00.0,0642.4,31.1
2021-10-24T08:39:00Z,00000200,01000000,0000.10,0000.18,0000.31,-000.16,0000.28,0000.20,-000.25,0000.00,-000.06,18.4,24.7,,00.0,0642.4,31.1
2021-10-24T08:40:00Z,00000200,01000000,-000.13,0000.10,0000.06,0000.45,0000.17,0000.22,0000.06,-000.07,0000.31,18.3,24.7,,00.0,0642.4,31.0
2021-10-24T08:41:00Z,00000200,01000000,0000.44,-000.18,0000.04,0000.77,0000.15,0000.28,-000.03,0000.34,-000.43,18.2,24.6,,00.0,0642.3,31.0
2021-10-24T08:42:00Z,00000200,01000000,0000.16,-000.10,0000.01,-000.10,0000.34,0000.19,0000.23,-000.12,0000.43,18.2,24.6,,00.0,0642.4,31.0
2021-10-24T08:43:00Z,00000200,01000000,0000.61,-000.19,-000.13,-000.39,-000.01,0000.17,0000.17,-000.09,-000.03,18.2,24.6,,00.0,0642.3,31.0
2021-10-24T08:44:00Z,00000200,01000000,-000.28,0000.12,-000.05,0000.40,-000.16,0000.24,0000.08,0000.28,0000.23,18.2,24.6,,00.0,0642.3,31.1
2021-10-24T08:45:00Z,00000200,01000000,-000.02,-000.20,0000.35,0000.11,0000.00,0000.09,0000.24,0000.09,-000.30,18.2,24.6,,00.0,0642.4,31.0
2021-10-24T08:46:00Z,00000200,01000000,0000.29,-000.24,0000.06,0000.21,-000.26,0000.24,0000.00,0000.26,0000.26,18.3,24.6,,00.0,0642.3,31.1
2021-10-24T08:47:00Z,00000200,01000000,-000.17,0000.07,0000.09,0000.07,0000.00,-000.09,-000.02,0000.02,0000.11,18.3,24.7,,00.0,0642.3,31.1
2021-10-24T08:48:00Z,00000200,01000000,0000.22,-000.09,0000.28,0000.10,-000.07,-000.13,0000.16,0000.16,0000.19,18.4,24.7,,00.0,0642.2,31.1
2021-10-24T08:49:00Z,00000200,01000000,0000.24,-000.33,0000.15,0000.11,0000.11,0000.14,-000.16,-000.13,-000.04,18.4,24.7,,00.0,0642.3,31.1
2021-10-24T08:50:00Z,00000200,01000000,0000.51,0000.14,0000.09,0000.04,0000.20,-000.13,0000.06,0000.22,-000.07,18.4,24.7,,00.0,0642.2,31.1
2021-10-24T08:51:00Z,00000200,01000000,0000.62,0000.21,0000.31,-000.65,0000.17,0000.32,-000.06,-000.52,-000.05,18.3,24.7,,00.0,0642.2,31.0
2021-10-24T08:52:00Z,00000200,01000000,0000.76,-000.02,0000.15,0000.80,-000.12,0000.16,-000.09,-000.07,-000.21,18.3,24.7,,00.0,0642.1,31.0
2021-10-24T08:53:00Z,00000200,01000000,0000.05,-000.13,0000.16,0000.51,-000.13,0000.36,-000.16,-000.19,-000.38,18.2,24.6,,00.0,0642.0,31.0
2021-10-24T08:54:00Z,00000200,01000000,0000.09,0000.12,-000.13,0000.28,0000.08,0000.15,0000.29,-000.09,0000.60,18.1,24.5,,00.0,0642.0,31.0
2021-10-24T08:55:00Z,00000200,01000000,0000.23,-000.28,-000.14,0000.51,-000.08,0000.30,0000.04,0000.28,0000.51,18.0,24.5,,00.0,0641.9,31.0
2021-10-24T08:56:00Z,00000200,01000000,0000.54,-000.16,-000.10,0000.07,0000.05,0000.18,0000.10,0000.10,-000.77,17.9,24.4,,00.0,0642.0,30.9
2021-10-24T08:57:00Z,00000200,41000000,,,,,,,0000.49,0000.48,0000.56,17.9,24.4,,00.0,0641.7,31.0
2021-10-24T08:58:00Z,00000200,61000000,,,,,,,-000.41,-000.34,-000.16,17.6,24.5,,00.0,0641.1,31.0
2021-10-24T08:59:00Z,00000200,21000000,,,,,,,-000.38,-000.21,-000.52,17.6,24.6,,00.0,0641.0,31.0
